EW7070 Weather Reports


Display with metric or nautical units.
time (UTC)temp
F
wind
direction
speed
MPH
gust
MPH
rain 1hr
in
rain 24hr
in
rain mn
in
humidity
%
barometer
mb
20260510202754 57 347 0.0 5.0 0.00 0.00 0.00 65 1020.2
20260510202255 58 341 0.0 5.0 0.00 0.00 0.00 64 1020.2
20260510201801 58 10 1.0 7.0 0.00 0.00 0.00 64 1020.2
20260510201753 58 318 0.0 7.0 0.00 0.00 0.00 64 1020.1
20260510200755 58 347 3.0 11.0 0.00 0.00 0.00 62 1020.1
20260510200248 59 5 3.0 11.0 0.00 0.00 0.00 61 1020.2
20260510195745 59 332 3.0 11.0 0.00 0.00 0.00 62 1020.3
20260510195243 60 7 4.0 12.0 0.00 0.00 0.00 61 1020.5
20260510195010 60 289 3.0 12.0 0.00 0.00 0.00 61 1020.3
20260510194443 60 350 3.0 9.0 0.00 0.00 0.00 61 1020.3
20260510193938 60 7 4.0 9.0 0.00 0.00 0.00 62 1020.2
20260510193158 60 341 4.0 10.0 0.00 0.00 0.00 60 1020.2
20260510192633 60 340 3.0 10.0 0.00 0.00 0.00 59 1020.3
20260510192131 60 255 3.0 10.0 0.00 0.00 0.00 60 1020.2
20260510191559 60 343 2.0 8.0 0.00 0.00 0.00 61 1020.1
20260510191329 60 297 1.0 7.0 0.00 0.00 0.00 61 1020.0
20260510190554 60 10 2.0 7.0 0.00 0.00 0.00 62 1020.0
20260510190028 60 300 3.0 7.0 0.00 0.00 0.00 60 1019.9
20260510185459 60 335 3.0 8.0 0.00 0.00 0.00 60 1019.9
20260510184956 60 345 3.0 12.0 0.00 0.00 0.00 61 1019.9
20260510184454 60 329 2.0 12.0 0.00 0.00 0.00 61 1020.0
20260510183945 60 12 1.0 9.0 0.00 0.00 0.00 61 1019.9
20260510183445 59 278 1.0 5.0 0.00 0.00 0.00 62 1020.0
20260510182933 59 353 2.0 6.0 0.00 0.00 0.00 61 1019.9
20260510182435 59 301 2.0 6.0 0.00 0.00 0.00 61 1020.0
20260510182137 60 283 2.0 7.0 0.00 0.00 0.00 60 1020.0
20260510181624 60 295 3.0 9.0 0.00 0.00 0.00 59 1020.1
20260510180853 62 274 3.0 9.0 0.00 0.00 0.00 58 1020.0
20260510180327 63 291 3.0 11.0 0.00 0.00 0.00 57 1020.1
20260510175800 63 5 3.0 11.0 0.00 0.00 0.00 58 1020.0
20260510175521 63 357 4.0 11.0 0.00 0.00 0.00 60 1020.0
20260510174748 62 356 4.0 11.0 0.00 0.00 0.00 59 1019.9
20260510174517 62 323 4.0 9.0 0.00 0.00 0.00 60 1019.9
20260510173743 61 305 4.0 9.0 0.00 0.00 0.00 61 1020.0
20260510173237 61 325 3.0 10.0 0.00 0.00 0.00 61 1020.1
20260510173005 60 2 3.0 10.0 0.00 0.00 0.00 64 1020.0
20260510172207 60 297 4.0 10.0 0.00 0.00 0.00 64 1020.1
20260510171702 60 335 5.0 10.0 0.00 0.00 0.00 62 1020.1
20260510171430 60 349 6.0 12.0 0.00 0.00 0.00 62 1020.1
20260510170652 61 344 5.0 12.0 0.00 0.00 0.00 62 1020.0
20260510170146 60 287 4.0 10.0 0.00 0.00 0.00 65 1020.0
20260510165639 60 296 3.0 10.0 0.00 0.00 0.00 64 1020.2
20260510165114 59 321 3.0 7.0 0.00 0.00 0.00 66 1020.1
20260510164610 58 227 4.0 7.0 0.00 0.00 0.00 66 1020.4
20260510164104 58 233 4.0 10.0 0.00 0.00 0.00 66 1020.3
20260510163601 59 270 3.0 10.0 0.00 0.00 0.00 66 1020.5
20260510163049 58 229 4.0 9.0 0.00 0.00 0.00 68 1020.5
20260510162824 57 286 3.0 9.0 0.00 0.00 0.00 69 1020.5
20260510162027 57 284 3.0 7.0 0.00 0.00 0.00 71 1020.8
20260510161527 56 257 4.0 7.0 0.00 0.00 0.00 70 1020.8
20260510161027 56 266 3.0 7.0 0.00 0.00 0.00 71 1020.8
20260510160523 56 298 3.0 7.0 0.00 0.00 0.00 72 1020.9
20260510160021 56 277 3.0 7.0 0.00 0.00 0.00 71 1021.1
20260510155456 56 256 3.0 9.0 0.00 0.00 0.00 71 1021.2
20260510155158 56 230 4.0 8.0 0.00 0.00 0.00 71 1021.2
20260510154358 56 270 4.0 9.0 0.00 0.00 0.00 72 1021.2
20260510154124 56 257 3.0 6.0 0.00 0.00 0.00 71 1021.2
20260510153349 56 225 3.0 9.0 0.00 0.00 0.00 70 1021.3
20260510152845 56 272 4.0 10.0 0.00 0.00 0.00 71 1021.5
20260510152318 56 256 4.0 10.0 0.00 0.00 0.00 72 1021.6
20260510151811 56 318 3.0 10.0 0.00 0.00 0.00 71 1021.6
20260510151308 56 356 3.0 10.0 0.00 0.00 0.00 71 1021.4
20260510151015 56 328 5.0 13.0 0.00 0.00 0.00 72 1021.6
20260510150214 56 278 4.0 13.0 0.00 0.00 0.00 73 1021.7
20260510145649 56 307 3.0 6.0 0.00 0.00 0.00 72 1021.6
20260510145148 56 341 3.0 6.0 0.00 0.00 0.00 72 1021.7
20260510144909 56 339 2.0 6.0 0.00 0.00 0.00 73 1021.9
20260510144139 55 9 3.0 8.0 0.00 0.00 0.00 74 1021.9
20260510143609 55 278 3.0 6.0 0.00 0.00 0.00 72 1022.0
20260510143046 55 16 3.0 7.0 0.00 0.00 0.00 76 1022.2
20260510142812 55 330 3.0 7.0 0.00 0.00 0.00 77 1022.3
20260510142308 55 316 3.0 7.0 0.00 0.00 0.00 78 1022.3
20260510141514 54 310 3.0 7.0 0.00 0.00 0.00 78 1022.3
20260510141007 54 244 3.0 7.0 0.00 0.00 0.00 79 1022.5
20260510140455 54 269 2.0 9.0 0.00 0.00 0.00 79 1022.3
20260510135955 53 335 2.0 9.0 0.00 0.00 0.00 82 1022.5
20260510135426 53 305 3.0 8.0 0.00 0.00 0.00 82 1022.4
20260510134923 53 235 3.0 8.0 0.00 0.00 0.00 81 1022.5
20260510134420 53 235 3.0 8.0 0.00 0.00 0.00 82 1022.6
20260510134137 53 263 2.0 8.0 0.00 0.00 0.00 82 1022.6
20260510133406 53 250 2.0 6.0 0.00 0.00 0.00 82 1022.6
20260510132902 53 242 1.0 6.0 0.00 0.00 0.00 82 1022.7
20260510132840 53 253 3.0 7.0 0.00 0.00 0.00 83 1022.5
20260510131832 53 283 4.0 7.0 0.00 0.00 0.00 83 1022.5
20260510131335 52 287 3.0 6.0 0.00 0.00 0.00 84 1022.5
20260510130807 52 260 2.0 6.0 0.00 0.00 0.00 86 1022.5
20260510130256 51 321 2.0 5.0 0.00 0.00 0.00 88 1022.4
20260510125754 51 256 2.0 5.0 0.00 0.00 0.00 87 1022.4
20260510125255 51 289 2.0 5.0 0.00 0.00 0.00 87 1022.4
20260510124754 51 235 2.0 5.0 0.00 0.00 0.00 87 1022.4
20260510124245 51 239 2.0 7.0 0.00 0.00 0.00 87 1022.4
20260510123742 51 270 3.0 7.0 0.00 0.00 0.00 88 1022.5
20260510123239 51 295 2.0 7.0 0.00 0.00 0.00 89 1022.5
20260510122732 51 270 1.0 7.0 0.00 0.00 0.00 89 1022.5
20260510122211 51 251 1.0 4.0 0.00 0.00 0.00 91 1022.7
20260510121645 51 315 1.0 4.0 0.00 0.00 0.00 92 1022.8
20260510121143 50 271 1.0 4.0 0.00 0.00 0.00 92 1022.7
20260510120619 50 187 0.0 2.0 0.00 0.00 0.00 93 1022.6
20260510120109 50 312 0.0 2.0 0.00 0.00 0.00 92 1022.7
20260510115536 49 266 1.0 2.0 0.00 0.00 0.00 92 1022.7
20260510115010 49 328 1.0 4.0 0.00 0.00 0.00 92 1022.7
20260510114449 49 344 1.0 4.0 0.00 0.00 0.00 92 1022.7
20260510113930 49 346 1.0 4.0 0.00 0.00 0.00 91 1022.9
20260510113403 49 314 1.0 4.0 0.00 0.00 0.00 91 1022.8
20260510113352 49 29 1.0 4.0 0.00 0.00 0.00 91 1022.8
20260510112354 49 287 2.0 4.0 0.00 0.00 0.00 90 1022.7
20260510112347 49 319 2.0 4.0 0.00 0.00 0.00 91 1022.8
20260510111954 49 302 1.0 3.0 0.00 0.00 0.00 90 1022.8
20260510110839 49 262 2.0 6.0 0.00 0.00 0.00 89 1022.9
20260510110320 50 259 3.0 6.0 0.00 0.00 0.00 88 1022.7
20260510105819 50 251 2.0 4.0 0.00 0.00 0.00 88 1022.7
20260510105256 50 229 2.0 4.0 0.00 0.00 0.00 87 1022.7
20260510104757 50 237 1.0 4.0 0.00 0.00 0.00 88 1022.6
20260510104245 50 256 0.0 2.0 0.00 0.00 0.00 88 1022.5
20260510103738 50 248 0.0 2.0 0.00 0.00 0.00 87 1022.4
20260510103226 50 251 1.0 3.0 0.00 0.00 0.00 88 1022.5
20260510102716 50 311 1.0 3.0 0.00 0.00 0.00 87 1022.4
20260510102216 50 258 1.0 3.0 0.00 0.00 0.00 87 1022.3
20260510101710 50 278 1.0 3.0 0.00 0.00 0.00 87 1022.2
20260510101211 50 303 1.0 4.0 0.00 0.00 0.00 87 1022.3
20260510100643 50 272 1.0 4.0 0.00 0.00 0.00 87 1022.2
20260510100136 50 228 1.0 3.0 0.00 0.00 0.00 87 1022.2
20260510095900 50 224 1.0 3.0 0.00 0.00 0.00 86 1022.1
20260510095350 50 277 2.0 4.0 0.00 0.00 0.00 87 1022.0
20260510094558 50 347 2.0 4.0 0.00 0.00 0.00 87 1021.9
20260510094052 50 345 1.0 2.0 0.00 0.00 0.00 87 1021.8
20260510093532 50 303 0.0 2.0 0.00 0.00 0.00 88 1021.7
20260510093022 50 239 0.0 1.0 0.00 0.00 0.00 87 1021.7
20260510092520 50 239 0.0 1.0 0.00 0.00 0.00 87 1021.6
20260510092018 50 239 0.0 1.0 0.00 0.00 0.00 86 1021.4
20260510091515 50 239 0.0 1.0 0.00 0.00 0.00 86 1021.5
20260510090950 50 239 0.0 1.0 0.00 0.00 0.00 85 1021.4
20260510090451 49 257 0.0 1.0 0.00 0.00 0.00 86 1021.4
20260510085940 50 257 0.0 2.0 0.00 0.00 0.00 86 1021.2
20260510085438 50 257 0.0 2.0 0.00 0.00 0.00 86 1021.1
20260510084922 50 257 0.0 3.0 0.00 0.00 0.00 87 1021.2
20260510084418 50 349 0.0 3.0 0.00 0.00 0.00 87 1021.0
20260510083916 50 343 0.0 2.0 0.00 0.00 0.00 87 1021.1
20260510083417 50 291 0.0 2.0 0.00 0.00 0.00 87 1020.9
20260510083125 50 2 1.0 3.0 0.00 0.00 0.00 86 1020.9
20260510082356 50 343 1.0 3.0 0.00 0.00 0.00 86 1020.9
20260510081847 50 332 1.0 3.0 0.00 0.00 0.00 85 1020.9
20260510081334 50 315 1.0 4.0 0.00 0.00 0.00 85 1020.9
20260510080807 50 342 1.0 4.0 0.00 0.00 0.00 85 1020.8
20260510080259 50 341 0.0 4.0 0.00 0.00 0.00 86 1020.8
20260510075745 50 276 0.0 1.0 0.00 0.00 0.00 86 1020.9
20260510075239 50 271 0.0 2.0 0.00 0.00 0.00 86 1020.8
20260510075007 50 243 1.0 2.0 0.00 0.00 0.00 86 1020.9
20260510074208 50 243 2.0 6.0 0.00 0.00 0.00 85 1021.0
20260510073707 50 245 3.0 6.0 0.00 0.00 0.00 85 1021.0
20260510073204 51 241 3.0 9.0 0.00 0.00 0.00 84 1021.0
20260510072652 51 233 3.0 9.0 0.00 0.00 0.00 82 1021.0
20260510072135 51 223 2.0 5.0 0.00 0.00 0.00 78 1021.0
20260510071624 51 314 2.0 5.0 0.00 0.00 0.00 78 1020.9
20260510071124 51 9 3.0 6.0 0.00 0.00 0.00 79 1020.8
20260510070623 51 353 2.0 6.0 0.00 0.00 0.00 78 1020.9
20260510070124 51 330 2.0 5.0 0.00 0.00 0.00 78 1021.0
20260510065621 51 329 1.0 5.0 0.00 0.00 0.00 78 1021.0
20260510065122 51 341 1.0 8.0 0.00 0.00 0.00 78 1021.0
20260510064622 51 291 2.0 8.0 0.00 0.00 0.00 78 1021.0
20260510064120 51 324 2.0 8.0 0.00 0.00 0.00 78 1021.0
20260510063850 51 291 2.0 8.0 0.00 0.00 0.00 78 1020.8
20260510063323 51 319 2.0 7.0 0.00 0.00 0.00 78 1021.0
20260510062559 51 17 1.0 4.0 0.00 0.00 0.00 79 1021.2
20260510062552 51 355 2.0 7.0 0.00 0.00 0.00 79 1021.1
20260510061530 51 357 1.0 3.0 0.00 0.00 0.00 79 1021.2
20260510061030 51 314 0.0 3.0 0.00 0.00 0.00 79 1021.4
20260510060526 51 8 1.0 7.0 0.00 0.00 0.00 79 1021.5
20260510060022 51 356 2.0 7.0 0.00 0.00 0.00 80 1021.4
20260510055520 51 1 2.0 6.0 0.00 0.00 0.00 79 1021.5
20260510055018 51 310 2.0 6.0 0.00 0.00 0.00 80 1021.6
20260510054517 50 316 1.0 5.0 0.00 0.00 0.00 80 1021.6
20260510054247 50 298 0.0 3.0 0.00 0.00 0.00 81 1021.5
20260510053451 50 8 1.0 5.0 0.00 0.00 0.00 81 1021.5
20260510052929 50 337 1.0 5.0 0.00 0.00 0.00 81 1021.6
20260510052420 50 291 2.0 6.0 0.00 0.00 0.00 81 1021.4
20260510051920 50 331 3.0 6.0 0.00 0.00 0.00 81 1021.4
20260510051409 50 348 2.0 5.0 0.00 0.00 0.00 82 1021.4
20260510050908 50 2 1.0 4.0 0.00 0.00 0.00 83 1021.5
20260510050408 49 8 2.0 6.0 0.00 0.00 0.00 84 1021.5
20260510045904 49 332 2.0 6.0 0.00 0.00 0.00 84 1021.5
20260510045404 49 322 1.0 5.0 0.00 0.00 0.00 85 1021.5
20260510044905 49 338 1.0 4.0 0.00 0.00 0.00 85 1021.4
20260510044404 49 350 2.0 6.0 0.00 0.00 0.00 85 1021.4
20260510044345 49 287 1.0 3.0 0.00 0.00 0.00 86 1021.4
20260510043949 49 342 1.0 6.0 0.00 0.00 0.00 85 1021.3
20260510043111 49 301 1.0 3.0 0.00 0.00 0.00 86 1021.4
20260510042336 49 314 1.0 4.0 0.00 0.00 0.00 85 1021.5
20260510041836 49 285 2.0 4.0 0.00 0.00 0.00 85 1021.6
20260510041323 49 316 1.0 4.0 0.00 0.00 0.00 85 1021.4
20260510040754 49 287 1.0 3.0 0.00 0.00 0.00 85 1021.6
20260510040523 48 280 1.0 4.0 0.00 0.00 0.00 85 1021.6
20260510035751 48 290 1.0 4.0 0.00 0.00 0.00 85 1021.5
20260510035248 48 292 1.0 3.0 0.00 0.00 0.00 85 1021.5
20260510034736 48 339 1.0 4.0 0.00 0.00 0.00 86 1021.5
20260510034220 47 25 1.0 4.0 0.00 0.00 0.00 86 1021.6
20260510033712 47 8 1.0 6.0 0.00 0.00 0.00 87 1021.5
20260510033208 47 8 2.0 6.0 0.00 0.00 0.00 88 1021.7
20260510032644 46 10 1.0 4.0 0.00 0.00 0.00 89 1021.6
20260510032146 46 331 0.0 3.0 0.00 0.00 0.00 89 1021.6
20260510031613 46 343 0.0 3.0 0.00 0.00 0.00 89 1021.7
20260510031104 46 262 0.0 3.0 0.00 0.00 0.00 89 1021.7
20260510030839 46 276 1.0 3.0 0.00 0.00 0.00 89 1021.6
20260510030058 46 291 0.0 3.0 0.00 0.00 0.00 89 1021.6
20260510025546 46 310 1.0 2.0 0.00 0.00 0.00 88 1021.5
20260510025047 46 287 1.0 3.0 0.00 0.00 0.00 88 1021.5
20260510024521 47 274 0.0 3.0 0.00 0.00 0.00 87 1021.4
20260510024021 47 301 0.0 3.0 0.00 0.00 0.00 87 1021.3
20260510023518 47 301 1.0 3.0 0.00 0.00 0.00 86 1021.2
20260510023004 47 260 1.0 3.0 0.00 0.00 0.00 86 1021.3
20260510022437 48 273 1.0 3.0 0.00 0.00 0.00 86 1021.2
20260510021920 48 293 1.0 3.0 0.00 0.00 0.00 86 1021.2
20260510021421 48 31 2.0 3.0 0.00 0.00 0.00 86 1021.3
20260510020920 48 45 2.0 4.0 0.00 0.00 0.00 86 1021.4
20260510020623 48 22 1.0 4.0 0.00 0.00 0.00 87 1021.4
20260510015847 47 40 1.0 3.0 0.00 0.00 0.00 88 1021.3
20260510015335 47 285 1.0 4.0 0.00 0.00 0.00 88 1021.3
20260510014835 47 276 1.0 4.0 0.00 0.00 0.00 88 1021.3
20260510014329 47 274 0.0 3.0 0.00 0.00 0.00 87 1021.1
20260510013801 47 272 0.0 2.0 0.00 0.00 0.00 86 1021.0
20260510013234 47 253 0.0 2.0 0.00 0.00 0.00 84 1021.0
20260510012733 47 231 0.0 2.0 0.00 0.00 0.00 84 1020.9
20260510012226 48 297 0.0 1.0 0.00 0.00 0.00 83 1021.0
20260510011658 48 288 0.0 0.0 0.00 0.00 0.00 82 1020.8
20260510011154 49 274 0.0 0.0 0.00 0.00 0.00 81 1020.8
20260510010921 49 274 0.0 0.0 0.00 0.00 0.00 80 1020.7
20260510010144 49 274 0.0 1.0 0.00 0.00 0.00 80 1020.5
20260510005641 50 274 0.0 2.0 0.00 0.00 0.00 80 1020.6
20260510005114 51 274 0.0 2.0 0.00 0.00 0.00 79 1020.7
20260510004547 51 237 0.0 0.0 0.00 0.00 0.00 78 1020.6
20260510004043 51 237 0.0 0.0 0.00 0.00 0.00 77 1020.7
20260510003535 51 237 0.0 0.0 0.00 0.00 0.00 76 1020.6
20260510003032 52 237 0.0 0.0 0.00 0.00 0.00 76 1020.7
20260510002529 52 272 1.0 3.0 0.00 0.00 0.00 76 1020.7
20260510002003 52 272 2.0 7.0 0.00 0.00 0.00 76 1020.7
20260510001455 52 229 2.0 9.0 0.00 0.00 0.00 76 1020.6
20260510000952 52 301 2.0 9.0 0.00 0.00 0.00 76 1020.4
20260510000427 52 276 2.0 8.0 0.00 0.00 0.00 76 1020.4
20260509235910 53 302 1.0 8.0 0.00 0.00 0.00 76 1020.2
20260509235847 53 317 3.0 10.0 0.00 0.00 0.00 75 1020.1
20260509234840 53 271 3.0 10.0 0.00 0.00 0.00 75 1020.0
20260509234327 53 278 2.0 8.0 0.00 0.00 0.00 74 1019.9
20260509233822 53 229 3.0 6.0 0.00 0.00 0.00 74 1019.7
20260509233254 53 295 3.0 7.0 0.00 0.00 0.00 74 1019.8
20260509232746 53 247 4.0 9.0 0.00 0.00 0.00 74 1019.8
20260509232242 52 265 3.0 9.0 0.00 0.00 0.00 75 1019.8
20260509231715 52 294 2.0 8.0 0.00 0.00 0.00 75 1019.7
20260509231149 51 262 0.0 3.0 0.00 0.00 0.00 76 1019.3
20260509230646 51 242 0.0 2.0 0.00 0.00 0.00 77 1019.2
20260509230145 52 273 0.0 2.0 0.00 0.00 0.00 77 1019.1
20260509225632 52 240 0.0 2.0 0.00 0.00 0.00 76 1019.0
20260509225133 53 253 0.0 2.0 0.00 0.00 0.00 75 1018.9
20260509224837 53 264 0.0 2.0 0.00 0.00 0.00 74 1018.6
20260509224100 53 261 0.0 3.0 0.00 0.00 0.00 72 1018.5
20260509223554 54 298 1.0 3.0 0.00 0.00 0.00 72 1018.4
20260509223258 54 292 1.0 3.0 0.00 0.00 0.00 71 1018.3
20260509222523 55 257 1.0 3.0 0.00 0.00 0.00 72 1018.4
20260509222021 55 3 2.0 4.0 0.00 0.00 0.00 71 1018.2
20260509221510 55 297 2.0 7.0 0.00 0.00 0.00 69 1018.2
20260509221008 56 292 1.0 7.0 0.00 0.00 0.00 69 1018.2
20260509220456 56 301 1.0 6.0 0.00 0.00 0.00 69 1018.1
20260509220226 56 278 2.0 6.0 0.00 0.00 0.00 69 1018.0
20260509215428 56 278 4.0 9.0 0.00 0.00 0.00 70 1018.0
20260509214925 56 276 3.0 8.0 0.00 0.00 0.00 72 1017.8
20260509214416 56 214 3.0 9.0 0.00 0.00 0.00 73 1017.7
20260509214144 56 207 1.0 9.0 0.00 0.00 0.00 71 1017.6
20260509213633 56 330 0.0 5.0 0.00 0.00 0.00 70 1016.9
20260509212903 56 333 1.0 5.0 0.00 0.00 0.00 69 1016.8
20260509212354 57 314 1.0 5.0 0.00 0.00 0.00 68 1016.7
20260509211855 57 356 1.0 5.0 0.00 0.00 0.00 68 1016.6
20260509211353 57 322 2.0 9.0 0.00 0.00 0.00 68 1016.6
20260509210849 57 327 3.0 9.0 0.00 0.00 0.00 68 1016.4
20260509210358 58 332 2.0 9.0 0.00 0.00 0.00 66 1016.5
20260509210350 57 328 3.0 9.0 0.00 0.00 0.00 67 1016.6
20260509205620 58 301 1.0 6.0 0.00 0.00 0.00 66 1016.1
20260509204850 58 316 1.0 6.0 0.00 0.00 0.00 66 1016.1
20260509204553 58 288 1.0 6.0 0.00 0.00 0.00 65 1016.1
20260509203811 59 342 2.0 6.0 0.00 0.00 0.00 65 1016.1
20260509203548 59 2 3.0 7.0 0.00 0.00 0.00 65 1016.2